Find Starlink 11090

NORAD ID: 59422 Int'l Des: 2024-065 Owner: SPXS Country: US Constellation: starlink operational
LEOCIRCULAR

Current View

Loading 3D Globe...

About Starlink 11090

Starlink 11090 (NORAD 59422) is a starlink constellation satellite (v2 mini d2c) launched Apr 7, 2024 by SPXS of US. It operates in LEO, CIRCULAR orbit with a mass of 960.00 kg.

About Starlink 11090

Description loading...

Upcoming Passes

Passes for default location (London). Set your location on the main map for personalized predictions.

Altitude History

Loading altitude history...

Two-Line Element Set

1 59422U 24065B 26171.38888904 .00001106 00000-0 13988-4 0 9995
2 59422 53.1594 307.5809 0001396 96.5727 263.5449 15.69707139127661
Epoch: Jun 20, 2026 • Age: 23 hours

Current Status

Altitude 375.2 km
Velocity 7.68 km/s
Sub-Earth Point -43.61°S, 131.86°W
Launch Date Apr 7, 2024
Age 2.2 years
Type internet

Technical Details

Classification Payload
Mass 960.00 kg
Dry Mass 910.00 kg
Total Mass 960.00 kg
Length 0.30 m
Diameter 4.10 m
Span 29.00 m
Shape Box + pan
Manufacturer SPXS
Bus Type Starlink V2MD
Phase Status In Orbit
Owner/State SPXS/US

Most Searched